Flag for Saudi Arabia Weather past 2 weeks in Makkah, Saudi Arabia

Now
82 °F

Sunny.


Feels Like: 81 °F
Forecast: 65 / 95 °F
Wind: 12 mph from Northwest

Location: Jeddah King Abdul Aziz International Airport

Current Time: Apr 2, 2015 at 10:55:53 AM

Latest Report: Apr 2, 2015 at 10:00 AM


Visibility: 4 mi

Pressure: 29.86 "Hg

Humidity: 37%

Dew point: 54 °F

Location of MakkahLocation

Historic Weather in Makkah — Graph

°F

Makkah temperature yesterday

Maximum temperature yesterday: 88 °F (at 12:00 PM)
Minimum temperature yesterday: 73 °F (at 6:00 AM)
Average temperature yesterday: 80 °F

Past Weeks' High & Low Weather Summary

 TemperatureHumidityPressure
High106 °F (Mar 29, 2:00 PM)74% (Mar 31, 4:00 AM)29.95 "Hg (Mar 31, 4:00 AM)
Low70 °F (Mar 21, 7:00 AM)13% (Mar 29, 4:00 PM)29.65 "Hg (Mar 29, 3:00 PM)
Average82 °F49%29.82 "Hg
* Reported Mar 18 9:00 AM — Apr 2 9:00 AM, Makkah, Weather by CustomWeather, © 2015

Note: Actual official high and low records may vary slightly from our data, if they occured in-between our weather recording intervals... More about our weather records

Advertising

Makkah weather history for previous 24 hours

 ConditionsComfort  
Time TempWeatherWind HumidityBarometerVisibility
9:00 AM
Thu, Apr 2
79 °FSunny.9 mph45%29.86 "Hg4 mi
8:00 AM73 °FSunny.9 mph53%29.86 "Hg5 mi
7:00 AM70 °FSunny.7 mph64%29.86 "Hg5 mi
6:00 AM70 °FClear.7 mph64%29.83 "Hg10 mi
5:00 AM70 °FClear.9 mph60%29.83 "Hg10 mi
4:00 AM72 °FClear.12 mph57%29.83 "Hg10 mi
3:00 AM72 °FClear.12 mph61%29.83 "Hg10 mi
2:00 AM73 °FClear.9 mph57%29.83 "Hg10 mi
1:00 AM75 °FClear.12 mph54%29.86 "Hg10 mi
12:00 AM75 °FClear.12 mph54%29.89 "Hg10 mi
11:00 PM
Wed, Apr 1
75 °FClear.14 mph54%29.89 "Hg10 mi
10:00 PM77 °FClear.12 mph54%29.89 "Hg10 mi
9:00 PM77 °FClear.14 mph54%29.89 "Hg10 mi
8:00 PM77 °FClear.18 mph54%29.86 "Hg10 mi
7:00 PM79 °FClear.18 mph48%29.86 "Hg10 mi
6:00 PM82 °FSunny.21 mph37%29.83 "Hg10 mi
5:00 PM84 °FSunny.21 mph33%29.83 "Hg10 mi
4:00 PM86 °FSunny.23 mph29%29.83 "Hg10 mi
3:00 PM88 °FSunny.23 mph24%29.83 "Hg10 mi
2:00 PM88 °FSunny.21 mph21%29.86 "Hg10 mi
1:00 PM88 °FSunny.16 mph29%29.86 "Hg10 mi
12:00 PM88 °FSunny.16 mph25%29.89 "Hg10 mi
11:00 AM86 °FSunny.14 mph35%29.92 "Hg10 mi
10:00 AM84 °FSunny.16 mph43%29.92 "Hg10 mi
Weather by CustomWeather, © 2015

See weather overviewHow to use our weather pages